Location: PSU-Greenbush Astrophysical Observatory
(37.5140°N, 94.9880°W)
Time: 16:09:23
(UTC-06:00)

deb Explorer IX - Pass Details

Date: 24 January 2020
Orbit: 549 x 1099 km, 38.8° (Epoch: 18 February)

Event Time Altitude Azimuth Distance (km) Brightness Sun altitude
Rises 22:15:10 0° 244° (WSW) 3,729 - -55.0°
Reaches altitude 10° 22:17:46 10° 242° (WSW) 2,835 - -55.5°
Maximum altitude 22:24:46 71° 160° (SSE) 1,144 - -56.7°
Drops below altitude 10° 22:32:03 10° 77° (ENE) 2,940 - -58.0°
Sets 22:34:47 0° 76° (ENE) 3,875 - -58.5°
